STARLINK-11091 [DTC]

Last updated on Mon Oct 21 2024 00:02:04 GMT+0000 (Coordinated Universal Time)

1 61207U 24171H 24293.98257140 -.00001703 00000+0 -64207-5 0 9993 2 61207 53.1554 149.8169 0000635 78.8628 281.2464 15.76720382 4969
UTC large
Height (km)
Speed (km/s)
/
Latitude / Longitude
Inclination (degrees)
Orbital Period (minutes)
Azimuth
Elevation
Range (km)
Doppler Factor

Next 0 passes for location: London (51.5072 / 0.1276)

Sorry there are no passes over London.